星链-34601 (STARLINK-34601)

导读

STARLINK-34601是美国SpaceX公司星链(Starlink)星座的量产低轨通信卫星,于2025年8月4日发射入轨。卫星采用平板设计搭配太阳电池阵,重约227kg,搭载Ku/Ka波段通信载荷,配备氪工质霍尔推进器,具备自主避撞能力,设计寿命5-7年,旨在为全球提供高速稳定的宽带互联网服务,寿命末期会主动离轨再入大气层焚毁。

Basic Information
目录编号:
65084
目录名称:
STARLINK-34601
国际标识:
2025-167G
轨道中心:
EARTH
卫星名称:
星链-34601
卫星全名:
星链-34601 (STARLINK-34601)
卫星状态:
在轨 (已飞行396 天)
发射日期:
2025-08-04 UTC
国别 :
美国 (US)
星等 :
--
Orbit Information
数据来源 国际轨道数据
星历时间: 2026-09-03T16:20:14+0800
1天前
查看轨道信息
半长轴: 6840.841km
偏心率: 0.0001212
轨道倾角: 53.159°
近地点辐角 89.037°
升交点赤经 274.092°
平近点角 271.077°
近地点: 461.874km
远地点: 463.534km
周期: 93.848分钟
每日圈数: 15.343998
Detailed Information
固有亮度:
5
最大亮度:
2.5
卫星平台:
Starlink V1.0
覆盖范围:
全球
运营商:
太空探索技术公司
运营商所在国:
美国
制造商(研发单位):
太空探索技术公司
制造商所在国:
美国
使用方式:
暂无
Satellite Introduction
Starlink 计划是 SpaceX 推出的全球卫星互联网项目,通过发射低轨道卫星,为全球尤其是偏远地区提供高速、低延迟的互联网服务。自 2019 年起,Starlink 已部署数千颗卫星,旨在缩小全球数字鸿沟,推动互联网普及。该项目还为军事、航空等行业提供通信支持,带来广泛经济效益。
2D Orbit Map
3D Orbit Map
Orbit Altitude Analysis Chart
Orbit Inclination Analysis Chart
Orbit Comprehensive Analysis Chart
View Comprehensive Chart
Conjunction Data List
Event ID Objects TCA Miss Dist (km) Collision Risk Probability Collision Risk Index (CRI) Action
CDM_260906-132506-107006-508421
2026-09-06T
13:25:33+0000
0.265 km
中距离
4.445781E-4 高风险 0.88
CDM_260906-071006-166306-508421
2026-09-06T
07:10:01+0000
1.028 km
极远距离
1.42659E-5 中风险 0.58
CDM_260906-084306-166306-508421
2026-09-06T
08:43:49+0000
1.072 km
极远距离
1.234383E-5 中风险 0.57
CDM_260905-222805-187906-508421
2026-09-05T
22:28:03+0000
0.901 km
远距离
5.234133E-6 低风险 0.49
CDM_260905-231405-187906-508421
2026-09-05T
23:14:57+0000
1.165 km
极远距离
2.225376E-6 低风险 0.42
CDM_260906-145906-107006-508421
2026-09-06T
14:59:21+0000
2.060 km
极远距离
1.692435E-6 低风险 0.4
CDM_260905-214105-187906-508421
2026-09-05T
21:41:09+0000
1.327 km
极远距离
1.481951E-6 低风险 0.38
CDM_260906-115106-107006-508421
2026-09-06T
11:51:45+0000
2.402 km
极远距离
1.22963E-6 低风险 0.37
CDM_260905-205405-187906-508421
2026-09-05T
20:54:16+0000
1.863 km
极远距离
6.025367E-7 极低风险 0.31